STARLINK-32807, 62845

Orbit data source: Space-Track

STARLINK-32807, 62845 is a payload satellite owned by SpaceX/Seattle (US) in LEO that was launched on Mon, 27 Jan 2025 UTC via an FALCON 9 launch vehicle from the Air Force Eastern Test Range (AFETR). Payload-class satellites include a variety of spacecraft equipped with specific instruments for various scientific and technological missions. These include communications satellites like Starlink; space stations such as the ISS; scientific satellites like the Hubble; Earth observation satellites from companies like Planet Labs, Umbra, and HawkEye 360; GPS; miniature CubeSats for education and research; and military/defense satellites.

Loading next visibility...
Identifier
62845, 2025-019S
Orbit
LEO
Last TLE update
1 day ago
Origin
Manufacturer
SpaceX/Seattle
Mission
Operational Commercial Communications
Bus & Motor
STARLINK V2M, Unknown motor
Mass
730 kg wet, ~700 kg dry
Launch date (UTC)
2025-01-27 (5 months ago)
Launch vehicle
FALCON 9
Launch site
Air Force Eastern Test Range (AFETR)
Object type
Payload
Rocket body
Debris
Shape & HBR
Box + 2 Pan, 29 m
Radar Cross Section
33.884 m², Large (>1 m²)

Expand to show TLE details & history

TLE from 1 day ago
0 STARLINK-32807
1 62845U 25019S   25185.99507025  .00017439  00000-0  64129-3 0  9999
2 62845  43.0027  40.5308 0001670 272.1201  87.9459 15.27604015 24450
Epoch: 2025-07-04T23:52Z
TLE epoch observation values (Epoch: 2025-07-04T23:52:54.069Z)
Latitude
-0.00005°
Longitude
119.06598°
Altitude
482.712 km
Speed
7.626 km/s
True Right ascension
02h 42m 07s
True Declination
0° 00' 00"
Sunlit
Object was in daylight at epoch
Visualization orbit readout
Latitude
40.25472°
Longitude
-131.49587°
Altitude
486.51 km
Speed
7.627 km/s
Apparent Right ascension
05h 58m 34s
Apparent Declination
4° 28' 00"
Sunlit
Object is in daylight
Visualization observer readout
Local Sidereal Time
13:24:34
Azimuth
287.598° WNW
Elevation
-13.314°
Doppler factor
1
Orbital elements
Apogee altitude
486.068 km
Perigee altitude
483.776 km
Semi-major axis
6,863.059 km
Eccentricity
0.00017
Inclination
43.0027°
RAAN
40.5308°
Arg. of periapsis
272.1201°
True anomaly
Unknown
Mean anomaly
87.9459°
Eccentric anomaly
Unknown
Mean motion
3.81739 °/min
Orbital period
94.31 mins
BSTAR
0.00064129
Loading maneuver chart data...
Loading SW <> Apogee altitude chart data...
Loading historical data...
Loading historical data...
Loading historical data...
Loading historical data...
Loading historical data...
Loading historical data...
Loading historical data...

STARLINK-32807 Visibility forecast

Observer location: undefined°, undefined°

Span
Click to sort rows by Start time (UTC) header in descending order
Start Az.
Max El. time (UTC)
Max El. Az.
Max El.
End time (UTC)
End Az.
5 mins2025-07-06 16:52:53.700Z203.001° SW2025-07-06 16:55:53.700Z132.985° SE25.467°2025-07-06 16:57:53.700Z93.803° ESE
6 mins2025-07-06 18:31:53.700Z260.564° W2025-07-06 18:33:53.700Z299.146° NW43.452°2025-07-06 18:37:53.700Z71.065° E
6 mins2025-07-06 20:10:53.700Z291.028° WNW2025-07-06 20:12:53.700Z334.916° NNW36.746°2025-07-06 20:16:53.700Z79.619° E
6 mins2025-07-06 21:49:53.700Z286.683° WNW2025-07-06 21:52:53.700Z125.718° SE42.613°2025-07-06 21:55:53.700Z112.548° SE
|